This is the latest recevied weather packets stored in our database for station/object KC4JIR. If no packets are shown the sender has not sent any weather packets the latest 10 day(s).
| Time | Temp. | Humidity | Pressure | Rain* | Wind** | Luminosity | Snow |
|---|---|---|---|---|---|---|---|
| 1788272897 | 28.89° C | 86% | 1017.6 hPa | 0 mm | - | 475 W/m² | - |
| 1788272596 | 28.89° C | 85% | 1017.7 hPa | 0 mm | - | 313 W/m² | - |
| 1788272292 | 28.33° C | 86% | 1017.5 hPa | 0 mm | - | 309 W/m² | - |
| 1788271992 | 27.78° C | 90% | 1017.7 hPa | 0 mm | - | 467 W/m² | - |
| 1788271690 | 27.22° C | 90% | 1017.7 hPa | 0 mm | - | 505 W/m² | - |
| 1788271389 | 27.22° C | 91% | 1017.7 hPa | 0 mm | - | 85 W/m² | - |
| 1788271084 | 26.67° C | 92% | 1017.7 hPa | 0 mm | - | 58 W/m² | - |
| 1788270779 | 26.67° C | 95% | 1017.6 hPa | 0 mm | - | 49 W/m² | - |
| 1788270476 | 26.67° C | 95% | 1017.6 hPa | 0 mm | - | 48 W/m² | - |
| 1788270175 | 26.11° C | 95% | 1017.7 hPa | 0 mm | - | 57 W/m² | - |
| 1788269875 | 26.11° C | 96% | 1017.4 hPa | 0 mm | - | 40 W/m² | - |
| 1788269575 | 25.56° C | 97% | 1017.6 hPa | 0 mm | - | 38 W/m² | - |
| 1788269273 | 25° C | 99% | 1017.4 hPa | 0 mm | - | 36 W/m² | - |
| 1788268968 | 25° C | 99% | 1017.5 hPa | 0 mm | - | 35 W/m² | - |
| 1788268663 | 25° C | 99% | 1017.7 hPa | 0 mm | - | 35 W/m² | - |
| 1788268362 | 24.44° C | 99% | 1017.6 hPa | 0 mm | - | 36 W/m² | - |
| 1788268058 | 24.44° C | 99% | 1017.7 hPa | 0 mm | - | 39 W/m² | - |
| 1788267757 | 24.44° C | 99% | 1017.5 hPa | 0 mm | - | 34 W/m² | - |
| 1788267455 | 23.89° C | 99% | 1017.6 hPa | 0 mm | - | 32 W/m² | - |
| 1788267150 | 23.89° C | 99% | 1017.5 hPa | 0 mm | - | 34 W/m² | - |
| 1788266844 | 23.89° C | 99% | 1017.5 hPa | 0 mm | - | 39 W/m² | - |
| 1788266539 | 23.89° C | 99% | 1017.7 hPa | 0 mm | - | 48 W/m² | - |
| 1788266239 | 23.89° C | 99% | 1017.6 hPa | 0 mm | - | 57 W/m² | - |
| 1788265933 | 23.33° C | 99% | 1017.7 hPa | 0 mm | - | 50 W/m² | - |
| 1788265632 | 23.33° C | 99% | 1017.5 hPa | 0 mm | - | 41 W/m² | - |
* Rain latest hour (hover to see other rain measurements)
** Current wind speed in m/s (hover to see current wind gust speed)